Regional Weather Roundup
Issued by NWS

Home | Current Version | Previous Version | Text Only | Print | Product List | Glossary On
Versions: 1 2 3 4 5 6 7 8 9 10 11 12 13 14 15 16 17 18 19 20 21 22 23 24 25 26 27 28 29 30 31 32 33 34 35 36 37 38 39 40 41 42 43 44 45 46 47 48 49 50
000
ASUS42 KTBW 011419
RWRFL
FLORIDA REGIONAL WEATHER ROUNDUP
NATIONAL WEATHER SERVICE TAMPA BAY RUSKIN FL
1000 AM EDT TUE SEP 01 2015

NOTE: "FAIR" INDICATES FEW OR NO CLOUDS BELOW 12,000 FEET WITH NO
SIGNIFICANT WEATHER AND/OR OBSTRUCTIONS TO VISIBILITY.


FLZ001>010-012>015-112-114-115-011500-
PANHANDLE FLORIDA

CITY           SKY/WX    TMP DP  RH WIND       PRES   REMARKS
PENSACOLA      MOSUNNY   82  69  64 N9        30.07F
PENSACOLA NAS  PTSUNNY   82  71  69 N6        30.06F
MILTON NAS     PTSUNNY   82  70  66 N7        30.08
CRESTVIEW      MOSUNNY   82  69  64 N5        30.09F
DUKE FIELD     PTSUNNY   82  68  64 N7        30.07S
VALPARAISO     PTSUNNY   85  69  58 N5        30.07S
MARY ESTHER    MOSUNNY   83  69  62 N12       30.06S
PANAMA CITY    FAIR      82  73  74 N5        30.07R
TYNDALL AFB    MOSUNNY   84  76  76 N6        30.07R
APALACHICOLA   CLOUDY    76  75  97 NE7       30.06S

STATION/POSITION SKY/WX   TEMP    WIND        PRES    WAVE   SWELL
                          AIR SEA DIR/SP/G            HT/PER HT/PER
                          (F)     (DEG/KT/KT) (MB)    (FT/S) (FT/S)
30.1N   87.6W              81 85   10/ 12/ 16 1017.3F   1/ 2   2/ 6
29.2N   88.2W              83 86   30/ 10/ 12 1018.1R   1/ 7   2/ 7
28.8N   86.0W              84 86   20/ 10/ 14 1017.2    1/ 5
PANAMA CITY BEAC           80 85  340/  7/ 10 1017.8S
CAPE SAN BLAS    NOT AVBL
TOWER C                    77     360/ 10/ 12 1018.3R
28.5N   84.5W              81 86  350/ 10/ 12 1017.0R   2/ 5   2/ 5

$$
FLZ011-016>038-118-127-128-134-139-239-011500-
NORTH FLORIDA

CITY           SKY/WX    TMP DP  RH WIND       PRES   REMARKS
MARIANNA       MOSUNNY   81  74  79 VRB3      30.08R
TALLAHASSEE    PTSUNNY   84  74  71 NE8       30.08S
PERRY          MOSUNNY   82  75  80 NE3       30.08S
CROSS CITY       N/A     82  76  81 SE6       30.07S
LAKE CITY      CLOUDY    77  77 100 CALM      30.09R
GAINESVILLE    PTSUNNY   80  76  87 SE6       30.08F
MAYPORT NAS    PTSUNNY   83  76  79 E5        30.08R
JACKSONVILLE   PTSUNNY   81  78  91 NE3       30.08R
JAX NAS        PTSUNNY   85  74  69 S7        30.09R
JAX CRAIG      MOSUNNY   83  76  79 E3        30.08R
JAX CECIL      MOSUNNY   82  77  83 SW5       30.09R
FERNANDINA BEA FAIR      81  77  89 E5        30.07S THUNDER
ST AUGUSTINE   MOSUNNY   84  77  79 S6        30.10R

STATION/POSITION SKY/WX   TEMP    WIND        PRES    WAVE   SWELL
                          AIR SEA DIR/SP/G            HT/PER HT/PER
                          (F)     (DEG/KT/KT) (MB)    (FT/S) (FT/S)
SHELL POINT                77      40/  4/ 10   N/A
KEATON BEACH               80      40/  4/  6 1018.4R
CEDAR KEY                  79      90/ 10/ 11 1018.3R
FERNANDINA                 81 85   60/  3/  7 1017.7F
30.7N   81.3W                 85                N/A     2/ 7
MAYPORT                    80 85  200/  3/  5 1018.6F
31.4N   80.9W              81 84  130/  6/  8 1019.2R   2/ 8   2/ 8
ST AUGUSTINE               80 83  150/  4/  5 1019.6R

$$
FLZ040-043>046-052-053-057-058-063-144-011500-
INTERIOR CENTRAL FLORIDA

CITY           SKY/WX    TMP DP  RH WIND       PRES   REMARKS
OCALA          MOSUNNY   81  75  83 S7        30.08S
THE VILLAGES     N/A     84  77  79 S10       29.99S
LEESBURG       SUNNY     81  76  84 S7        30.10R
SANFORD        MOSUNNY   81  76  84 S5        30.10S
ORLANDO EXEC   MOSUNNY   82  79  90 S5        30.10R
ORLANDO INTL   MOSUNNY   82  78  88 S7        30.10S
KISSIMMEE      PTSUNNY   82  79  89 SE7       30.11R
WINTER HAVEN   SUNNY     82  77  84 S7        30.11R
LAKELAND       MOSUNNY   82  77  83 SE10      30.10R
BARTOW         MOSUNNY   81  77  89 SE7       30.10S
OKEECHOBEE     SUNNY     82  77  83 SE5       30.11S

$$
FLZ041-047-054-059-064-141-147-011500-
EAST CENTRAL FLORIDA

CITY           SKY/WX    TMP DP  RH WIND       PRES   REMARKS
ORMOND BEACH   MOSUNNY   81  75  83 CALM      30.09S
DAYTONA BEACH  MOSUNNY   82  77  84 SW6       30.09S
DELAND           N/A     81  77  89 S6        30.11R
NEW SMYRNA BEA MOSUNNY   79  75  89 SW6       30.10S
JFK SPACE CTR  SUNNY     84  74  71 S6        30.09R
TITUSVILLE     MOSUNNY   82  75  78 S3        30.11R
CAPE CANAVERAL SUNNY     84  78  82 S8        30.09R HX  96
PATRICK AFB    SUNNY     85  75  73 S6        30.10R
MELBOURNE      SUNNY     82  75  79 S3        30.10S
VERO BEACH     SUNNY     86  71  60 CALM      30.11S
FT PIERCE      SUNNY     86  73  65 CALM      30.10S
STUART         MOSUNNY   84  72  65 CALM      30.12R

STATION/POSITION SKY/WX   TEMP    WIND        PRES    WAVE   SWELL
                          AIR SEA DIR/SP/G            HT/PER HT/PER
                          (F)     (DEG/KT/KT) (MB)    (FT/S) (FT/S)
28.5N   80.2W              83 83  170/  2/  2 1019.4R
28.9N   78.5W              85 85  160/  4/  6 1019.6R
TRIDENT PIER               83 86  170/  3/  5 1019.7R
28.4N   80.5W                 85                N/A     2/ 8
27.5N   80.2W                 84                N/A     2/10   2/11

$$
FLZ050-056-061-142-242-148-248-149-249-151-251-155-255-
160-260-011500-
WEST CENTRAL FLORIDA

CITY           SKY/WX    TMP DP  RH WIND       PRES   REMARKS
CRYSTAL RIVER  FAIR      82  77  83 SE5       30.07R
INVERNESS      FAIR      82  79  89 S6        30.08S
BROOKSVILLE    SUNNY     83  78  85 S10       30.08S
CLEARWATER     MOSUNNY   84  78  82 SE14      30.06S HX  95
TAMPA INTL     MOSUNNY   84  77  79 SE8       30.07S
TAMPA EXEC     SUNNY     86  77  74 S7        30.08S HX  97
PLANT CITY     SUNNY     84  79  84 SE5       30.10S HX  96
MACDILL AFB    SUNNY     84  81  90 SE12      30.07R HX  98
PETER O KNIGHT SUNNY     86  79  79 SE8       30.07S HX  99
ST PETERSBURG  MOSUNNY   83  77  82 S12       30.05R
SARASOTA       MOSUNNY   83  78  85 SE10      30.05F
VENICE         FAIR      84  81  89 S10       30.07F HX  98

STATION/POSITION SKY/WX   TEMP    WIND        PRES    WAVE   SWELL
                          AIR SEA DIR/SP/G            HT/PER HT/PER
                          (F)     (DEG/KT/KT) (MB)    (FT/S) (FT/S)
CEDAR KEY                  79      90/ 10/ 11 1018.3R
28.5N   84.5W              81 86  350/ 10/ 12 1017.0R   2/ 5   2/ 5
27.3N   84.2W                 86                N/A     3/ 4
CLEARWATER BEACH           81 85  130/  8/ 12 1017.8R
MIDDLE TAMPA BAY           81     170/ 12/ 14 1018.2R
VENICE                     84 86  150/ 12/ 15 1017.7S

$$
FLZ066-069-070-075>078-162-262-165-265-011500-
SOUTHWEST FLORIDA AND KEYS

CITY           SKY/WX    TMP DP  RH WIND       PRES   REMARKS
PUNTA GORDA    SUNNY     83  78  85 SE8       30.10R
FT MYERS       SUNNY     83  77  82 SE7       30.08R
SOUTHWEST INTL SUNNY     83  76  79 SE7       30.09R
NAPLES         SUNNY     84  77  79 SE5       30.08S
MARCO ISLAND   SUNNY     84  75  74 E6        30.08S
MARATHON       MOSUNNY   88  78  72 SE5       30.08R HX 101
KEY WEST NAS   MOSUNNY   89  77  67 SE10      30.08R HX 101
KEY WEST INTL  SUNNY     87  77  72 SE8       30.08R HX  99

STATION/POSITION SKY/WX   TEMP    WIND        PRES    WAVE   SWELL
                          AIR SEA DIR/SP/G            HT/PER HT/PER
                          (F)     (DEG/KT/KT) (MB)    (FT/S) (FT/S)
VENICE                     84 86  150/ 12/ 15 1017.7S
NAPLES                        84              1019.7R
26.0N   85.6W              85 86  220/ 10/ 12 1016.8R   2/ 6   2/ 6
DRY TORTUGAS                                    N/A
NW FL BAY                  86     140/  8/ 10 1018.5
SAND KEY                   86     130/ 11     1018.4R
LONG KEY                   86 85  160/  8/  9 1019.6R
MOLASSES REEF              85 87  120/  7/  9 1019.0R

$$
FLZ067-068-071>074-168-172>174-011500-
SOUTHEAST FLORIDA

CITY           SKY/WX    TMP DP  RH WIND       PRES   REMARKS
W PALM BEACH   PTSUNNY   85  75  72 NW5       30.11R
FT LAUDER-EXEC MOSUNNY   87  75  67 E5        30.09R HX  96
FT LAUDERDALE  MOSUNNY   85  77  77 E8        30.09R HX  95
POMPANO BEACH  SUNNY     87  76  69 E6        30.09R HX  97
PEMBROKE PINES SUNNY     88  75  65 VRB3      30.10R HX  97
OPA LOCKA      MOSUNNY   88  75  65 SE5       30.09R HX  97
MIAMI          MOSUNNY   87  76  69 E6        30.09R HX  97
WEST KENDALL     N/A     87  77  72 E5        30.09  HX  99
HOMESTEAD      MOSUNNY   88  76  69 E8        30.08R HX  98

STATION/POSITION SKY/WX   TEMP    WIND        PRES    WAVE   SWELL
                          AIR SEA DIR/SP/G            HT/PER HT/PER
                          (F)     (DEG/KT/KT) (MB)    (FT/S) (FT/S)
PORT EVERGLADES            87      70/  6/  8 1019.1R
VIRGINIA KEY               87 85   CALM  /  1 1018.4R
LAKE WORTH                 83 86  240/  3/  4 1018.6R
SETTLEMENT POINT           86     160/  6/  7 1020.3R

$$



USA.gov is the U.S. government's official web portal to all federal, state and local government web resources and services.